Time,TemperatureF,DewpointF,PressureIn,WindDirection,WindDirectionDegrees,WindSpeedMPH,WindSpeedGustMPH,Humidity,HourlyPrecipIn,Conditions,Clouds,dailyrainin,SoftwareType,DateUTC
2013-02-19 00:00:00,47.1,40.6,28.20,NE,52,1.0,3.0,78,0.00,CLR,CLR,0.00,WeatherDisplay:10.37,2013-02-18 22:00:00,
2013-02-19 00:10:00,47.1,40.3,28.20,East,85,1.0,3.0,77,0.00,CLR,CLR,0.00,WeatherDisplay:10.37,2013-02-18 22:10:00,
2013-02-19 00:20:00,46.8,40.6,28.20,NE,54,1.0,3.0,79,0.00,CLR,CLR,0.00,WeatherDisplay:10.37,2013-02-18 22:20:00,
2013-02-19 00:30:00,46.9,41.1,28.20,ENE,61,1.0,4.0,80,0.00,CLR,CLR,0.00,WeatherDisplay:10.37,2013-02-18 22:30:00,
2013-02-19 00:40:00,46.9,41.1,28.20,East,85,2.0,4.0,80,0.00,CLR,CLR,0.00,WeatherDisplay:10.37,2013-02-18 22:40:00,
2013-02-19 00:50:00,46.9,41.1,28.20,East,80,2.0,5.0,80,0.00,CLR,CLR,0.00,WeatherDisplay:10.37,2013-02-18 22:50:00,
2013-02-19 01:00:00,47.1,41.2,28.20,East,93,2.0,5.0,80,0.00,CLR,CLR,0.00,WeatherDisplay:10.37,2013-02-18 23:00:00,
2013-02-19 01:10:00,47.3,41.4,28.19,East,93,2.0,6.0,80,0.00,CLR,CLR,0.00,WeatherDisplay:10.37,2013-02-18 23:10:00,
2013-02-19 01:20:00,48.0,41.8,28.19,East,94,3.0,6.0,79,0.00,CLR,CLR,0.00,WeatherDisplay:10.37,2013-02-18 23:20:00,
2013-02-19 01:30:00,48.6,42.0,28.18,ESE,102,2.0,6.0,78,0.00,CLR,CLR,0.00,WeatherDisplay:10.37,2013-02-18 23:30:00,
2013-02-19 01:40:00,49.1,42.2,28.18,ESE,104,2.0,6.0,77,0.00,CLR,CLR,0.00,WeatherDisplay:10.37,2013-02-18 23:40:00,
2013-02-19 01:50:00,49.5,42.2,28.18,East,92,3.0,8.0,76,0.00,CLR,CLR,0.00,WeatherDisplay:10.37,2013-02-18 23:50:00,
2013-02-19 02:00:00,49.9,41.9,28.18,ENE,63,5.0,8.0,74,0.00,CLR,CLR,0.00,WeatherDisplay:10.37,2013-02-19 00:00:00,
2013-02-19 02:10:00,50.2,41.5,28.18,East,89,2.0,8.0,72,0.00,CLR,CLR,0.00,WeatherDisplay:10.37,2013-02-19 00:10:00,
2013-02-19 02:20:00,50.2,40.4,28.18,ENE,68,5.0,8.0,69,0.00,CLR,CLR,0.00,WeatherDisplay:10.37,2013-02-19 00:20:00,
2013-02-19 02:30:00,50.4,40.2,28.18,East,80,3.0,8.0,68,0.00,CLR,CLR,0.00,WeatherDisplay:10.37,2013-02-19 00:30:00,
2013-02-19 02:40:00,50.5,40.3,28.17,ENE,77,2.0,6.0,68,0.00,CLR,CLR,0.00,WeatherDisplay:10.37,2013-02-19 00:40:00,
2013-02-19 02:50:00,50.2,40.0,28.17,ESE,102,2.0,6.0,68,0.00,CLR,CLR,0.00,WeatherDisplay:10.37,2013-02-19 00:50:00,
2013-02-19 03:00:00,50.0,40.2,28.17,ESE,122,2.0,5.0,69,0.00,CLR,CLR,0.00,WeatherDisplay:10.37,2013-02-19 01:00:00,
2013-02-19 03:10:00,50.0,40.2,28.16,ESE,103,3.0,6.0,69,0.00,CLR,CLR,0.00,WeatherDisplay:10.37,2013-02-19 01:10:00,
2013-02-19 03:20:00,50.2,40.4,28.16,ESE,107,3.0,7.0,69,0.00,CLR,CLR,0.00,WeatherDisplay:10.37,2013-02-19 01:20:00,
2013-02-19 03:30:00,50.1,40.0,28.16,ESE,107,3.0,7.0,68,0.00,CLR,CLR,0.00,WeatherDisplay:10.37,2013-02-19 01:30:00,
2013-02-19 03:40:00,50.4,39.9,28.15,East,96,3.0,11.0,67,0.00,CLR,CLR,0.00,WeatherDisplay:10.37,2013-02-19 01:40:00,
2013-02-19 03:50:00,50.7,39.8,28.15,ESE,110,5.0,9.0,66,0.00,CLR,CLR,0.00,WeatherDisplay:10.37,2013-02-19 01:50:00,
2013-02-19 04:00:00,50.9,39.9,28.14,ESE,106,5.0,9.0,66,0.00,CLR,CLR,0.00,WeatherDisplay:10.37,2013-02-19 02:00:00,
2013-02-19 04:10:00,50.9,39.9,28.15,East,93,5.0,9.0,66,0.00,CLR,CLR,0.00,WeatherDisplay:10.37,2013-02-19 02:10:00,
2013-02-19 04:30:00,50.9,40.3,28.14,East,92,3.0,8.0,67,0.00,CLR,CLR,0.00,WeatherDisplay:10.37,2013-02-19 02:30:00,
2013-02-19 04:40:00,50.9,40.7,28.14,East,99,3.0,8.0,68,0.00,CLR,CLR,0.00,WeatherDisplay:10.37,2013-02-19 02:40:00,
2013-02-19 04:50:00,50.9,41.1,28.14,East,85,2.0,6.0,69,0.00,CLR,CLR,0.00,WeatherDisplay:10.37,2013-02-19 02:50:00,
2013-02-19 05:00:00,51.1,41.3,28.14,ENE,78,1.0,7.0,69,0.00,CLR,CLR,0.00,WeatherDisplay:10.37,2013-02-19 03:00:00,
2013-02-19 05:10:00,51.0,41.2,28.14,ESE,115,3.0,7.0,69,0.00,CLR,CLR,0.00,WeatherDisplay:10.37,2013-02-19 03:10:00,
2013-02-19 05:20:00,51.4,42.0,28.14,East,101,2.0,6.0,70,0.00,CLR,CLR,0.00,WeatherDisplay:10.37,2013-02-19 03:20:00,
2013-02-19 05:30:00,51.4,42.0,28.14,ESE,104,3.0,8.0,70,0.00,CLR,CLR,0.00,WeatherDisplay:10.37,2013-02-19 03:30:00,
2013-02-19 05:40:00,51.6,42.5,28.13,ESE,107,2.0,8.0,71,0.00,CLR,CLR,0.00,WeatherDisplay:10.37,2013-02-19 03:40:00,
2013-02-19 05:50:00,51.6,43.6,28.13,East,85,5.0,8.0,74,0.00,CLR,CLR,0.00,WeatherDisplay:10.37,2013-02-19 03:50:00,
2013-02-19 06:00:00,51.6,43.6,28.12,East,101,5.0,8.0,74,0.00,CLR,CLR,0.00,WeatherDisplay:10.37,2013-02-19 04:00:00,
2013-02-19 06:10:00,51.6,44.0,28.12,East,92,3.0,10.0,75,0.00,CLR,CLR,0.00,WeatherDisplay:10.37,2013-02-19 04:10:00,
2013-02-19 06:20:00,51.8,44.1,28.11,ESE,108,5.0,8.0,75,0.00,CLR,CLR,0.00,WeatherDisplay:10.37,2013-02-19 04:20:00,
2013-02-19 06:30:00,51.9,44.6,28.12,ESE,109,5.0,9.0,76,0.00,CLR,CLR,0.00,WeatherDisplay:10.37,2013-02-19 04:30:00,
2013-02-19 06:40:00,52.0,44.6,28.12,ESE,104,5.0,9.0,76,0.00,CLR,CLR,0.00,WeatherDisplay:10.37,2013-02-19 04:40:00,
2013-02-19 06:50:00,51.8,44.8,28.11,East,95,3.0,9.0,77,0.00,CLR,CLR,0.00,WeatherDisplay:10.37,2013-02-19 04:50:00,
2013-02-19 07:00:00,51.6,45.7,28.11,East,100,5.0,10.0,80,0.00,CLR,CLR,0.00,WeatherDisplay:10.37,2013-02-19 05:00:00,
2013-02-19 07:10:00,51.7,46.0,28.11,ESE,108,2.0,11.0,81,0.00,CLR,CLR,0.00,WeatherDisplay:10.37,2013-02-19 05:10:00,
2013-02-19 07:20:00,52.0,46.3,28.10,ESE,109,7.0,12.0,81,0.00,CLR,CLR,0.00,WeatherDisplay:10.37,2013-02-19 05:20:00,
2013-02-19 07:30:00,52.2,46.2,28.10,East,95,5.0,10.0,80,0.00,CLR,CLR,0.00,WeatherDisplay:10.37,2013-02-19 05:30:00,
2013-02-19 07:40:00,52.2,46.5,28.10,ESE,106,5.0,10.0,81,0.00,CLR,CLR,0.00,WeatherDisplay:10.37,2013-02-19 05:40:00,
2013-02-19 07:50:00,51.8,46.5,28.10,ESE,107,3.0,8.0,82,0.00,CLR,CLR,0.00,WeatherDisplay:10.37,2013-02-19 05:50:00,
2013-02-19 08:00:00,51.8,47.1,28.10,East,88,3.0,12.0,84,0.00,CLR,CLR,0.00,WeatherDisplay:10.37,2013-02-19 06:00:00,
2013-02-19 08:10:00,52.3,47.6,28.10,SE,126,9.0,18.0,84,0.01,RA,RA,0.01,WeatherDisplay:10.37,2013-02-19 06:10:00,
2013-02-19 08:20:00,52.5,47.8,28.10,ESE,116,5.0,18.0,84,0.00,,,0.01,WeatherDisplay:10.37,2013-02-19 06:20:00,
2013-02-19 08:30:00,52.5,48.5,28.10,ESE,106,8.0,14.0,86,0.01,RA,RA,0.02,WeatherDisplay:10.37,2013-02-19 06:30:00,
2013-02-19 08:40:00,52.7,48.9,28.10,ESE,110,7.0,17.0,87,0.00,CLR,CLR,0.02,WeatherDisplay:10.37,2013-02-19 06:40:00,
2013-02-19 08:50:00,52.5,49.1,28.09,East,93,7.0,15.0,88,0.00,CLR,CLR,0.02,WeatherDisplay:10.37,2013-02-19 06:50:00,
2013-02-19 09:00:00,52.5,49.4,28.09,East,91,9.0,17.0,89,0.00,CLR,CLR,0.02,WeatherDisplay:10.37,2013-02-19 07:00:00,
2013-02-19 09:10:00,52.7,49.8,28.08,ESE,115,6.0,17.0,90,0.00,CLR,CLR,0.02,WeatherDisplay:10.37,2013-02-19 07:10:00,
2013-02-19 09:20:00,52.7,49.8,28.08,ESE,110,7.0,14.0,90,0.00,CLR,CLR,0.02,WeatherDisplay:10.37,2013-02-19 07:20:00,
2013-02-19 09:30:00,52.9,50.0,28.07,ESE,103,3.0,14.0,90,0.00,CLR,CLR,0.02,WeatherDisplay:10.37,2013-02-19 07:30:00,
2013-02-19 09:40:00,52.7,50.1,28.07,ESE,104,3.0,11.0,91,0.00,CLR,CLR,0.02,WeatherDisplay:10.37,2013-02-19 07:40:00,
2013-02-19 09:50:00,52.5,50.3,28.07,East,99,5.0,10.0,92,0.01,RA,RA,0.04,WeatherDisplay:10.37,2013-02-19 07:50:00,
2013-02-19 10:00:00,53.2,51.0,28.07,ESE,107,7.0,15.0,92,0.00,CLR,CLR,0.04,WeatherDisplay:10.37,2013-02-19 08:00:00,
2013-02-19 10:10:00,53.4,51.2,28.07,SE,131,3.0,13.0,92,0.00,CLR,CLR,0.04,WeatherDisplay:10.37,2013-02-19 08:10:00,
2013-02-19 10:20:00,53.8,51.2,28.05,ESE,121,7.0,13.0,91,0.00,CLR,CLR,0.04,WeatherDisplay:10.37,2013-02-19 08:20:00,
2013-02-19 10:30:00,54.0,51.4,28.05,ESE,111,6.0,13.0,91,0.00,CLR,CLR,0.04,WeatherDisplay:10.37,2013-02-19 08:30:00,
2013-02-19 10:40:00,54.1,51.9,28.05,ESE,109,6.0,13.0,92,0.00,CLR,CLR,0.04,WeatherDisplay:10.37,2013-02-19 08:40:00,
2013-02-19 10:50:00,54.1,51.5,28.04,ESE,113,6.0,12.0,91,0.00,CLR,CLR,0.04,WeatherDisplay:10.37,2013-02-19 08:50:00,
2013-02-19 11:00:00,54.3,51.7,28.04,ESE,108,6.0,11.0,91,0.00,CLR,CLR,0.04,WeatherDisplay:10.37,2013-02-19 09:00:00,
2013-02-19 11:10:00,54.3,51.7,28.04,ESE,120,5.0,11.0,91,0.00,CLR,CLR,0.04,WeatherDisplay:10.37,2013-02-19 09:10:00,
2013-02-19 11:20:00,54.6,51.7,28.03,ESE,120,3.0,9.0,90,0.00,CLR,CLR,0.04,WeatherDisplay:10.37,2013-02-19 09:20:00,
2013-02-19 11:30:00,54.9,51.7,28.03,East,84,3.0,13.0,89,0.00,CLR,CLR,0.04,WeatherDisplay:10.37,2013-02-19 09:30:00,
2013-02-19 11:40:00,55.0,51.5,28.02,ESE,110,2.0,7.0,88,0.00,CLR,CLR,0.04,WeatherDisplay:10.37,2013-02-19 09:40:00,
2013-02-19 11:50:00,55.4,51.9,28.02,SE,131,7.0,16.0,88,0.01,RA,RA,0.05,WeatherDisplay:10.37,2013-02-19 09:50:00,
2013-02-19 12:00:00,56.7,52.5,28.00,ESE,114,2.0,16.0,86,0.00,CLR,CLR,0.05,WeatherDisplay:10.37,2013-02-19 10:00:00,
2013-02-19 12:10:00,56.5,52.7,28.01,SE,141,3.0,13.0,87,0.02,RA,RA,0.07,WeatherDisplay:10.37,2013-02-19 10:10:00,
2013-02-19 12:20:00,56.5,52.7,28.01,SE,135,3.0,8.0,87,0.00,CLR,CLR,0.07,WeatherDisplay:10.37,2013-02-19 10:20:00,
2013-02-19 12:30:00,56.5,52.7,28.01,SE,135,3.0,8.0,87,0.00,CLR,CLR,0.07,WeatherDisplay:10.37,2013-02-19 10:30:00,
2013-02-19 12:50:00,53.6,52.2,27.99,WNW,288,2.0,9.0,95,0.00,CLR,CLR,0.07,WeatherDisplay:10.37,2013-02-19 10:50:00,
2013-02-19 13:00:00,54.3,52.9,27.99,SSE,168,2.0,8.0,95,0.01,RA,RA,0.08,WeatherDisplay:10.37,2013-02-19 11:00:00,
2013-02-19 13:10:00,55.6,53.9,27.98,South,181,3.0,11.0,94,0.00,CLR,CLR,0.08,WeatherDisplay:10.37,2013-02-19 11:10:00,
2013-02-19 13:20:00,56.3,53.4,27.98,SW,219,3.0,10.0,90,0.00,CLR,CLR,0.08,WeatherDisplay:10.37,2013-02-19 11:20:00,
2013-02-19 13:30:00,56.1,52.6,27.98,SW,225,3.0,8.0,88,0.00,CLR,CLR,0.08,WeatherDisplay:10.37,2013-02-19 11:30:00,
2013-02-19 13:40:00,55.8,51.3,27.97,WSW,239,2.0,11.0,85,0.00,CLR,CLR,0.08,WeatherDisplay:10.37,2013-02-19 11:40:00,
2013-02-19 13:50:00,57.4,51.9,27.95,SSW,211,3.0,10.0,82,0.00,CLR,CLR,0.08,WeatherDisplay:10.37,2013-02-19 11:50:00,
2013-02-19 14:00:00,59.0,52.5,27.95,WSW,252,2.0,9.0,79,0.00,CLR,CLR,0.08,WeatherDisplay:10.37,2013-02-19 12:00:00,
2013-02-19 14:10:00,58.5,50.9,27.95,WSW,242,2.0,9.0,76,0.00,CLR,CLR,0.08,WeatherDisplay:10.37,2013-02-19 12:10:00,
2013-02-19 14:20:00,57.6,50.4,27.95,West,272,1.0,10.0,77,0.00,CLR,CLR,0.08,WeatherDisplay:10.37,2013-02-19 12:20:00,
2013-02-19 14:30:00,57.1,50.0,27.95,SW,235,3.0,11.0,77,0.00,CLR,CLR,0.08,WeatherDisplay:10.37,2013-02-19 12:30:00,
2013-02-19 14:40:00,56.8,49.0,27.94,SW,218,1.0,11.0,75,0.00,CLR,CLR,0.08,WeatherDisplay:10.37,2013-02-19 12:40:00,
2013-02-19 14:50:00,56.8,49.0,27.94,SSW,201,5.0,13.0,75,0.00,CLR,CLR,0.08,WeatherDisplay:10.37,2013-02-19 12:50:00,
2013-02-19 15:00:00,56.8,48.3,27.94,SSW,192,3.0,13.0,73,0.00,CLR,CLR,0.08,WeatherDisplay:10.37,2013-02-19 13:00:00,
2013-02-19 15:10:00,56.9,48.3,27.94,South,188,3.0,12.0,73,0.00,CLR,CLR,0.08,WeatherDisplay:10.37,2013-02-19 13:10:00,
2013-02-19 15:20:00,57.0,48.4,27.94,WSW,251,2.0,9.0,73,0.00,CLR,CLR,0.08,WeatherDisplay:10.37,2013-02-19 13:20:00,
2013-02-19 15:30:00,57.0,48.4,27.93,West,266,3.0,15.0,73,0.00,CLR,CLR,0.08,WeatherDisplay:10.37,2013-02-19 13:30:00,
2013-02-19 15:40:00,57.0,48.8,27.94,WSW,251,6.0,12.0,74,0.00,CLR,CLR,0.08,WeatherDisplay:10.37,2013-02-19 13:40:00,
2013-02-19 15:50:00,57.2,48.6,27.93,WSW,251,5.0,12.0,73,0.00,CLR,CLR,0.08,WeatherDisplay:10.37,2013-02-19 13:50:00,
2013-02-19 16:00:00,57.2,48.3,27.93,West,268,5.0,12.0,72,0.00,CLR,CLR,0.08,WeatherDisplay:10.37,2013-02-19 14:00:00,
2013-02-19 16:10:00,57.5,48.2,27.93,WSW,245,5.0,11.0,71,0.00,CLR,CLR,0.08,WeatherDisplay:10.37,2013-02-19 14:10:00,
2013-02-19 16:20:00,57.6,48.2,27.94,WSW,258,3.0,9.0,71,0.00,CLR,CLR,0.08,WeatherDisplay:10.37,2013-02-19 14:20:00,
2013-02-19 16:30:00,58.5,49.1,27.93,WSW,251,1.0,9.0,71,0.00,CLR,CLR,0.08,WeatherDisplay:10.37,2013-02-19 14:30:00,
2013-02-19 16:40:00,59.5,49.0,27.93,West,265,1.0,6.0,68,0.00,CLR,CLR,0.08,WeatherDisplay:10.37,2013-02-19 14:40:00,
2013-02-19 16:50:00,61.1,50.1,27.93,West,270,1.0,6.0,67,0.00,CLR,CLR,0.08,WeatherDisplay:10.37,2013-02-19 14:50:00,
2013-02-19 17:00:00,62.6,48.5,27.93,West,269,2.0,6.0,60,0.00,CLR,CLR,0.08,WeatherDisplay:10.37,2013-02-19 15:00:00,
2013-02-19 17:10:00,63.7,49.1,27.92,West,265,2.0,5.0,59,0.00,CLR,CLR,0.08,WeatherDisplay:10.37,2013-02-19 15:10:00,
2013-02-19 17:20:00,62.2,48.2,27.92,West,261,1.0,5.0,60,0.00,CLR,CLR,0.08,WeatherDisplay:10.37,2013-02-19 15:20:00,
2013-02-19 17:30:00,60.5,47.4,27.91,WNW,292,1.0,4.0,62,0.00,CLR,CLR,0.08,WeatherDisplay:10.37,2013-02-19 15:30:00,
2013-02-19 17:40:00,60.2,48.0,27.92,NW,318,1.0,3.0,64,0.00,CLR,CLR,0.08,WeatherDisplay:10.37,2013-02-19 15:40:00,
2013-02-19 17:50:00,59.9,48.1,27.91,NW,305,0.0,2.0,65,0.00,CLR,CLR,0.08,WeatherDisplay:10.37,2013-02-19 15:50:00,
2013-02-19 18:00:00,57.2,47.5,27.92,East,89,1.0,4.0,70,0.00,CLR,CLR,0.08,WeatherDisplay:10.37,2013-02-19 16:00:00,
2013-02-19 18:10:00,55.2,47.0,27.92,NNE,29,1.0,3.0,74,0.00,CLR,CLR,0.08,WeatherDisplay:10.37,2013-02-19 16:10:00,
2013-02-19 18:20:00,53.8,46.4,27.92,NNE,29,0.0,3.0,76,0.00,CLR,CLR,0.08,WeatherDisplay:10.37,2013-02-19 16:20:00,
2013-02-19 18:30:00,53.0,46.0,27.92,NE,54,0.0,2.0,77,0.00,CLR,CLR,0.08,WeatherDisplay:10.37,2013-02-19 16:30:00,
2013-02-19 18:40:00,52.1,45.5,27.92,NE,49,0.0,2.0,78,0.00,CLR,CLR,0.08,WeatherDisplay:10.37,2013-02-19 16:40:00,
2013-02-19 18:50:00,51.4,45.1,27.92,NE,38,0.0,2.0,79,0.00,CLR,CLR,0.08,WeatherDisplay:10.37,2013-02-19 16:50:00,
2013-02-19 19:00:00,51.3,46.0,27.93,NE,42,0.0,2.0,82,0.00,CLR,CLR,0.08,WeatherDisplay:10.37,2013-02-19 17:00:00,
2013-02-19 19:10:00,51.3,46.3,27.92,ENE,63,1.0,3.0,83,0.00,CLR,CLR,0.08,WeatherDisplay:10.37,2013-02-19 17:10:00,
2013-02-19 19:20:00,51.5,47.2,27.93,NNE,12,1.0,5.0,85,0.00,CLR,CLR,0.08,WeatherDisplay:10.37,2013-02-19 17:20:00,
2013-02-19 19:30:00,52.0,47.9,27.93,NNW,342,0.0,4.0,86,0.00,CLR,CLR,0.08,WeatherDisplay:10.37,2013-02-19 17:30:00,
2013-02-19 19:40:00,52.3,48.0,27.93,NNW,347,0.0,3.0,85,0.00,CLR,CLR,0.08,WeatherDisplay:10.37,2013-02-19 17:40:00,
2013-02-19 19:50:00,52.3,47.6,27.93,North,0,1.0,2.0,84,0.00,CLR,CLR,0.08,WeatherDisplay:10.37,2013-02-19 17:50:00,
2013-02-19 20:00:00,52.3,47.3,27.94,NNW,331,0.0,3.0,83,0.00,CLR,CLR,0.08,WeatherDisplay:10.37,2013-02-19 18:00:00,
2013-02-19 20:10:00,52.2,46.5,27.94,NNW,340,1.0,5.0,81,0.00,CLR,CLR,0.08,WeatherDisplay:10.37,2013-02-19 18:10:00,
2013-02-19 20:20:00,52.4,46.8,27.94,North,351,1.0,6.0,81,0.00,CLR,CLR,0.08,WeatherDisplay:10.37,2013-02-19 18:20:00,
2013-02-19 20:30:00,52.5,46.9,27.93,NNW,330,2.0,5.0,81,0.00,CLR,CLR,0.08,WeatherDisplay:10.37,2013-02-19 18:30:00,
2013-02-19 20:40:00,52.5,46.5,27.94,NNW,347,1.0,6.0,80,0.00,CLR,CLR,0.08,WeatherDisplay:10.37,2013-02-19 18:40:00,
2013-02-19 20:50:00,52.7,46.7,27.94,NW,319,1.0,6.0,80,0.00,CLR,CLR,0.08,WeatherDisplay:10.37,2013-02-19 18:50:00,
2013-02-19 21:00:00,52.5,46.2,27.94,North,352,0.0,6.0,79,0.00,CLR,CLR,0.08,WeatherDisplay:10.37,2013-02-19 19:00:00,
2013-02-19 21:10:00,52.3,45.7,27.95,NNW,346,1.0,6.0,78,0.00,CLR,CLR,0.08,WeatherDisplay:10.37,2013-02-19 19:10:00,
2013-02-19 21:20:00,52.5,45.5,27.95,NNW,331,0.0,6.0,77,0.00,CLR,CLR,0.08,WeatherDisplay:10.37,2013-02-19 19:20:00,
2013-02-19 21:30:00,52.7,45.3,27.95,NNW,327,2.0,8.0,76,0.00,CLR,CLR,0.08,WeatherDisplay:10.37,2013-02-19 19:30:00,
2013-02-19 21:40:00,52.9,45.5,27.95,NNW,334,5.0,12.0,76,0.00,CLR,CLR,0.08,WeatherDisplay:10.37,2013-02-19 19:40:00,
2013-02-19 21:50:00,53.2,45.9,27.95,North,357,5.0,12.0,76,0.00,CLR,CLR,0.08,WeatherDisplay:10.37,2013-02-19 19:50:00,
2013-02-19 22:00:00,53.2,45.8,27.95,NW,324,2.0,10.0,76,0.00,CLR,CLR,0.08,WeatherDisplay:10.37,2013-02-19 20:00:00,
2013-02-19 22:10:00,52.9,45.9,27.96,North,357,1.0,6.0,77,0.00,CLR,CLR,0.08,WeatherDisplay:10.37,2013-02-19 20:10:00,
2013-02-19 22:20:00,53.1,46.7,27.97,NE,51,5.0,13.0,79,0.00,CLR,CLR,0.08,WeatherDisplay:10.37,2013-02-19 20:20:00,
2013-02-19 22:30:00,53.4,47.0,27.97,North,350,3.0,10.0,79,0.00,CLR,CLR,0.08,WeatherDisplay:10.37,2013-02-19 20:30:00,
2013-02-19 22:40:00,53.4,47.1,27.97,NNW,341,2.0,8.0,79,0.00,CLR,CLR,0.08,WeatherDisplay:10.37,2013-02-19 20:40:00,
2013-02-19 22:50:00,53.2,46.9,27.97,NNW,338,1.0,7.0,79,0.00,CLR,CLR,0.08,WeatherDisplay:10.37,2013-02-19 20:50:00,
2013-02-19 23:00:00,52.7,46.0,27.97,North,5,1.0,5.0,78,0.00,CLR,CLR,0.08,WeatherDisplay:10.37,2013-02-19 21:00:00,
2013-02-19 23:10:00,52.5,45.5,27.96,North,357,2.0,8.0,77,0.00,CLR,CLR,0.08,WeatherDisplay:10.37,2013-02-19 21:10:00,
2013-02-19 23:20:00,52.3,45.7,27.97,NNW,333,2.0,6.0,78,0.00,CLR,CLR,0.08,WeatherDisplay:10.37,2013-02-19 21:20:00,
2013-02-19 23:30:00,52.5,45.9,27.97,NNW,337,0.0,6.0,78,0.00,CLR,CLR,0.08,WeatherDisplay:10.37,2013-02-19 21:30:00,
2013-02-19 23:40:00,52.3,46.4,27.97,NW,313,1.0,10.0,80,0.00,CLR,CLR,0.08,WeatherDisplay:10.37,2013-02-19 21:40:00,
2013-02-19 23:50:00,52.2,46.2,27.97,NW,307,2.0,6.0,80,0.00,CLR,CLR,0.08,WeatherDisplay:10.37,2013-02-19 21:50:00,